Location: Holyhead Bay
(53.3667°N, 4.6667°W)
Time: 19:36:08
(UTC+00:00)

USA 81 - Pass Details

Date: 24 November 2020
Orbit: 783 x 791 km, 85.0° (Epoch: 30 November)

Event Time Altitude Azimuth Distance (km) Brightness Sun altitude
Rises 17:35:56 0° 356° (N) 3,289 7.1 -12.3°
Reaches altitude 10° 17:38:28 10° 5° (N) 2,357 6.3 -12.6°
Maximum altitude 17:43:25 39° 74° (ENE) 1,172 4.5 -13.3°
Drops below altitude 10° 17:48:20 10° 143° (SE) 2,346 6.3 -14.0°
Sets 17:50:50 0° 151° (SSE) 3,272 7.1 -14.4°
